This is the latest recevied weather packets stored in our database for station/object KQ4WWD. If no packets are shown the sender has not sent any weather packets the latest 10 day(s).
| Time | Temp. | Humidity | Pressure | Rain* | Wind** | Luminosity | Snow |
|---|---|---|---|---|---|---|---|
| 1777670646 | 31.11° C | 54% | 1009 hPa | 0 mm | - | 365 W/m² | - |
| 1777670343 | 31.11° C | 54% | 1009 hPa | 0 mm | - | 379 W/m² | - |
| 1777670040 | 31.11° C | 54% | 1009 hPa | 0 mm | - | 413 W/m² | - |
| 1777669738 | 31.67° C | 53% | 1008.8 hPa | 0 mm | - | 430 W/m² | - |
| 1777669435 | 31.67° C | 52% | 1008.5 hPa | 0 mm | - | 472 W/m² | - |
| 1777669131 | 32.22° C | 52% | 1008.7 hPa | 0 mm | - | 498 W/m² | - |
| 1777668828 | 31.67° C | 53% | 1008.7 hPa | 0 mm | - | 534 W/m² | - |
| 1777668525 | 31.67° C | 52% | 1008.6 hPa | 0 mm | - | 408 W/m² | - |
| 1777668221 | 31.67° C | 50% | 1008.5 hPa | 0 mm | - | 409 W/m² | - |
| 1777667917 | 31.11° C | 48% | 1008.6 hPa | 0 mm | - | 229 W/m² | - |
| 1777667615 | 31.11° C | 49% | 1008.6 hPa | 0 mm | - | 268 W/m² | - |
| 1777667312 | 31.67° C | 49% | 1008.3 hPa | 0 mm | - | 266 W/m² | - |
| 1777667009 | 31.67° C | 49% | 1008.5 hPa | 0 mm | - | 236 W/m² | - |
| 1777666706 | 31.67° C | 49% | 1009 hPa | 0 mm | - | 257 W/m² | - |
| 1777666402 | 31.67° C | 51% | 1009.1 hPa | 0 mm | - | 227 W/m² | - |
| 1777666099 | 31.11° C | 51% | 1009.1 hPa | 0 mm | - | 230 W/m² | - |
| 1777665796 | 31.67° C | 51% | 1009 hPa | 0 mm | - | 268 W/m² | - |
| 1777665494 | 31.67° C | 50% | 1009.1 hPa | 0 mm | - | 252 W/m² | - |
| 1777665189 | 31.67° C | 51% | 1009.3 hPa | 0 mm | - | 263 W/m² | - |
| 1777664885 | 31.67° C | 53% | 1009.2 hPa | 0 mm | - | 204 W/m² | - |
| 1777664582 | 32.22° C | 52% | 1009.4 hPa | 0 mm | - | 252 W/m² | - |
| 1777664278 | 32.22° C | 53% | 1009.3 hPa | 0 mm | - | 222 W/m² | - |
| 1777663977 | 32.78° C | 51% | 1009.4 hPa | 0 mm | - | 210 W/m² | - |
| 1777663674 | 32.22° C | 52% | 1009.5 hPa | 0 mm | - | 702 W/m² | - |
| 1777663370 | 32.22° C | 52% | 1009.6 hPa | 0 mm | - | 660 W/m² | - |
* Rain latest hour (hover to see other rain measurements)
** Current wind speed in m/s (hover to see current wind gust speed)